Home   Weather   Schwerin   Past weeks
Flag for Germany

Past Weather in Schwerin, Mecklenburg-Western Pomerania, Germany — Yesterday and Last 2 Weeks

Now
48 °F

Passing clouds.


Feels Like: 43 °F
Forecast: 60 / 43 °F
Wind: 13 mph from West

Location: Luebeck-Blankensee

Current Time: Mar 20, 2019 at 8:51:57 pm

Latest Report: Mar 20, 2019 at 6:50 pm


Visibility: 4 mi

Pressure: 30.45 "Hg

Humidity: 94%

Dew Point: 46 °F

Location of SchwerinLocation

Past Weather in Schwerin — Graph

°F

Schwerin Temperature Yesterday

Maximum temperature yesterday: 48 °F (at 12:50 pm)
Minimum temperature yesterday: 36 °F (at 7:20 am)
Average temperature yesterday: 45 °F

High & Low Weather Summary for the Past Weeks

 TemperatureHumidityPressure
High55 °F (Mar 7, 11:20 am)100% (Mar 11, 7:20 am)30.45 "Hg (Mar 11, 7:20 am)
Low32 °F (Mar 11, 7:20 am)43% (Mar 19, 1:50 pm)29.15 "Hg (Mar 7, 11:20 am)
Average44 °F76%29.64 "Hg
* Reported Mar 5 6:20 pm — Mar 20 6:50 pm, Schwerin. Weather by CustomWeather, © 2019

Note: Actual official high and low records may vary slightly from our data, if they occured in-between our weather recording intervals... More about our weather records

Advertising

Schwerin Weather History for the Previous 24 Hours

Scroll right to see more
 ConditionsComfort  
Time TempWeatherWind HumidityBarometerVisibility
6:50 pm
Wed, Mar 20
48 °FPassing clouds.13 mph94%30.45 "Hg4 mi
6:20 pm50 °FBroken clouds.13 mph88%30.45 "Hg4 mi
5:50 pm50 °FPartly sunny.12 mph88%30.45 "Hg4 mi
5:20 pm50 °FPartly sunny.12 mph82%30.42 "Hg4 mi
4:50 pm50 °FPartly sunny.12 mph82%30.42 "Hg4 mi
4:20 pm50 °FPartly sunny.14 mph82%30.42 "Hg5 mi
3:50 pm50 °FPartly sunny.14 mph82%30.42 "Hg5 mi
3:20 pm50 °FPartly sunny.14 mph82%30.42 "Hg5 mi
2:20 pm50 °FPartly sunny.13 mph82%30.42 "Hg6 mi
1:50 pm50 °FPartly sunny.12 mph82%30.42 "Hg4 mi
1:20 pm50 °FDrizzle. Partly sunny.13 mph76%30.42 "HgN/A
12:50 pm50 °FPartly sunny.15 mph71%30.42 "HgN/A
12:20 pm50 °FPartly sunny.12 mph71%30.42 "HgN/A
11:50 am50 °FPartly sunny.9 mph71%30.42 "HgN/A
11:20 am48 °FPartly sunny.10 mph71%30.42 "HgN/A
10:50 am48 °FPartly sunny.13 mph71%30.42 "HgN/A
10:20 am46 °FPartly sunny.9 mph71%30.42 "HgN/A
9:50 am46 °FPartly sunny.9 mph71%30.42 "HgN/A
9:20 am45 °FPartly sunny.7 mph76%30.42 "HgN/A
8:50 am43 °FSunny.9 mph76%30.39 "Hg10 mi
8:20 am41 °FPassing clouds.7 mph76%30.39 "HgN/A
7:50 am37 °FPassing clouds.6 mph81%30.39 "HgN/A
7:20 am36 °FSunny.5 mph81%30.39 "Hg10 mi
6:50 am36 °FSunny.1 mph81%30.39 "Hg10 mi
Weather by CustomWeather, © 2019

See weather overview